Track IRIDIUM 36 now! 10-day predictions IRIDIUM 36 is classified as:
1 24967U 97056C 19052.45610935 .00000068 00000-0 16540-4 0 9999 2 24967 86.3938 60.4873 0002045 85.9260 274.2170 14.35703386120990